• MPC Preparation (Info)

  • MPEC 2015-F138: 2015 FV118

    The following Minor Planet Electronic Circular may be linked-to from your own Web pages, but must not otherwise be redistributed electronically.

    A form allowing access to any MPEC is at the bottom of this page.


    Read MPEC 2015-F137 Read MPEC 2015-F139


    M.P.E.C. 2015-F138                               Issued 2015 Mar. 28, 15:39 UT
    
         The Minor Planet Electronic Circulars contain information on unusual
             minor planets and routine data on comets.  They are published
       on behalf of Commission 20 of the International Astronomical Union by the
              Minor Planet Center, Smithsonian Astrophysical Observatory,
                              Cambridge, MA 02138, U.S.A.
    
                 Prepared using the Tamkin Foundation Computer Network
    
                                  MPC@CFA.HARVARD.EDU
                URL https://www.minorplanetcenter.net/    ISSN 1523-6714
    
                                      2015 FV118
    
    Observations:
         K15FB8V* C2015 03 25.54081 15 16 02.662+02 18 20.73         21.4 wLEF138F51
         K15FB8V  C2015 03 25.55322 15 16 01.625+02 18 41.14         21.5 wLEF138F51
         K15FB8V  C2015 03 25.56568 15 16 00.574+02 19 01.32         21.7 wLEF138F51
         K15FB8V KC2015 03 26.33717 15 15 00.49 +02 40 16.5                oEF138291
         K15FB8V KC2015 03 26.34133 15 15 00.20 +02 40 24.0          22.0 RoEF138291
         K15FB8V KC2015 03 26.34549 15 14 59.80 +02 40 30.7          22.0 RoEF138291
         K15FB8V KC2015 03 27.35851 15 13 33.40 +03 09 24.6          21.9 RoEF138291
         K15FB8V KC2015 03 27.36257 15 13 32.94 +03 09 31.8          21.1 RoEF138291
         K15FB8V KC2015 03 27.36664 15 13 32.59 +03 09 38.4          21.3 RoEF138291
         K15FB8V KC2015 03 28.38115715 11 57.77 +03 39 36.1          21.4 VuEF138H21
         K15FB8V KC2015 03 28.39063115 11 56.79 +03 39 53.3          21.3 VuEF138H21
         K15FB8V KC2015 03 28.40005915 11 55.81 +03 40 10.2          21.4 VuEF138H21
    
    Observer details:
    291 LPL/Spacewatch II.  Observer A. F. Tubbiolo.  1.8-m f/2.7 reflector + CCD.
    F51 Pan-STARRS 1, Haleakala.  Observers B. Gibson, T. Goggia, N. Primak,
        A. Schultz, M. Willman.  Measurers K. Chambers, S. Chastel, L. Denneau,
        H. Flewelling, M. Huber, E. Magnier, E. Schunova, R. Wainscoat, C. Waters,
        R. Weryk.  1.8-m Ritchey-Chretien + CCD.
    H21 Astronomical Research Observatory, Westfield.  Observer R. Holmes.
        Measurers L. Buzzi, T. Linder, S. Foglia, T. Vorobjov.  0.81-m f/4.0
        astrograph + CCD.
    
    Orbital elements:
    2015 FV118                                               Earth MOID = 0.0731 AU
    Epoch 2015 June 27.0 TT = JDT 2457200.5                 MPC
    M 325.15296              (2000.0)            P               Q
    n   1.23841642     Peri.  267.03347     +0.98842365     -0.10765367
    a   0.8587991      Node    99.12930     +0.14065347     +0.91436464
    e   0.5807843      Incl.    6.21617     -0.05687960     +0.39031782
    P   0.80           H   21.4           G   0.15           U   9
    Residuals in seconds of arc
    150325 F51  0.0   0.0     150326 291  0.5+  0.4+    150327 291  0.1+  0.4-
    150325 F51  0.0   0.1+    150326 291  0.0   0.1+    150328 H21  0.1-  0.0
    150325 F51  0.0   0.1-    150327 291  0.5+  0.0     150328 H21  0.0   0.1+
    150326 291  0.6-  0.1-    150327 291  0.5-  0.1+    150328 H21  0.0   0.0
    
    Ephemeris:
    2015 FV118               a,e,i = 0.86, 0.58, 6                   q = 0.3600
    Date    TT    R. A. (2000) Decl.     Delta      r     Elong.  Phase     V
    2015 02 26    15 19 21.7 -05 23 14   0.6764  1.3568   107.5    44.1    22.9
    ...
    2015 03 13    15 24 06.9 -02 14 25   0.5356  1.3517   121.3    38.9    22.3
    ...
    2015 03 21    15 20 39.5 +00 24 27   0.4635  1.3403   129.7    34.9    21.8
    ...
    2015 03 27    15 14 04.3 +02 59 13   0.4128  1.3278   136.5    31.1    21.4
    2015 03 28    15 12 34.3 +03 28 24   0.4047  1.3254   137.7    30.5    21.4
    2015 03 29    15 10 56.6 +03 58 37   0.3967  1.3228   138.8    29.8    21.3
    ...
    2015 04 04    14 58 12.7 +07 22 26   0.3520  1.3057   145.7    25.6    20.9
    ...
    2015 04 12    14 31 45.0 +12 54 01   0.3023  1.2774   152.2    21.5    20.4
    ...
    2015 04 27    13 07 46.4 +24 16 46   0.2516  1.2067   138.7    33.4    20.2
    
    A. U. Tomatic                (C) Copyright 2015 MPC           M.P.E.C. 2015-F138
    

    Read MPEC 2015-F137 Read MPEC 2015-F139


    MPEC number:

    Enter an MPEC number in one of the following forms:

    • 1997-B01 (the full form)
    • J97B01 (the packed version of the full form)
    • B01 (the abbreviated form)